Location: Asheville, NC
(35.6000°N, 82.5500°W)
Time: 10:32:47

AO-73 - Pass Details

Date: 12 March 2018
Orbit: 582 x 666 km, 97.6° (Epoch: 18 March)

Event Time Altitude Azimuth Distance (km) Brightness Sun altitude
Rises 21:55:12 0° 208° (SSW) 2,891 ? -28.9°
Reaches altitude 10° 21:58:19 10° 232° (SW) 1,971 ? -29.5°
Maximum altitude 22:00:42 15° 267° (W) 1,678 ? -29.9°
Drops below altitude 10° 22:03:04 10° 301° (WNW) 1,952 ? -30.4°
Sets 22:06:08 0° 326° (NW) 2,844 ? -30.9°
